CZ-3A DEB, 36968

Orbit data source: Space-Track

CZ-3A DEB, 36968 is space debris in HEO originally from a launch on Fri, 02 Feb 2007 UTC launched from the Xichang Space Center, China (XSC). Debris objects in space refer to the collection of defunct objects orbiting the Earth. Examples of debris include non-operational satellites, rocket bodies, and fragments generated from explosions, collisions, or faulty payload assembly.

Loading next visibility...
Identifier
36968, 2007-003AE
Orbit
HEO
Last TLE update
2 days ago
Origin
Manufacturer
Unknown
Mission
Spacecraft
Bus & Motor
Unknown
Mass
Unknown
Launch date (UTC)
2007-02-02 (18 years ago)
Launch vehicle
Unknown
Launch site
Xichang Space Center, China (XSC)
Object type
Payload
Rocket body
Debris
Shape & HBR
Unknown
Radar Cross Section
Medium (>0.1 m² and <1 m²)

Expand to show TLE details & history

TLE from 2 days ago
0 CZ-3A DEB
1 36968U 07003AE  25180.37795250  .00001180  00000-0  40380-2 0  9993
2 36968  25.6019 241.2453 7485085 182.6026 168.0535  1.96027501123487
Epoch: 2025-06-29T09:04Z
TLE epoch observation values (Epoch: 2025-06-29T09:04:15.095Z)
Latitude
0.00001°
Longitude
-172.49808°
Altitude
40,637.077 km
Speed
1.475 km/s
True Right ascension
16h 05m 04s
True Declination
0° 00' 00"
Sunlit
Object was in daylight at epoch
Visualization orbit readout
Latitude
0.84977°
Longitude
-171.34328°
Altitude
40,721.894 km
Speed
1.465 km/s
Apparent Right ascension
15h 45m 48s
Apparent Declination
-4° 06' 42"
Sunlit
Object is in daylight
Visualization observer readout
Local Sidereal Time
21:49:37
Azimuth
267.454° W
Elevation
-3.368°
Doppler factor
1
Orbital elements
Apogee altitude
40,783.635 km
Perigee altitude
405.236 km
Semi-major axis
26,972.572 km
Eccentricity
0.74851
Inclination
25.6019°
RAAN
241.2453°
Arg. of periapsis
182.6026°
True anomaly
Unknown
Mean anomaly
168.0535°
Eccentric anomaly
Unknown
Mean motion
0.48996 °/min
Orbital period
734.76 mins
BSTAR
0.004038
Loading maneuver chart data...
Loading SW <> Apogee altitude chart data...
Loading historical data...
Loading historical data...
Loading historical data...
Loading historical data...
Loading historical data...
Loading historical data...
Loading historical data...

CZ-3A DEB Visibility forecast

Observer location: undefined°, undefined°

Span
Click to sort rows by Start time (UTC) header in descending order
Start Az.
Max El. time (UTC)
Max El. Az.
Max El.
End time (UTC)
End Az.
202 mins2025-07-02 00:33:13.107Z96.399° ESE2025-07-02 02:51:13.107Z97.638° ESE21.188°2025-07-02 03:55:13.107Z84.062° E
|